Voltar ao catálogo

STARLINK-38099

AtivoComunicaçõesSSO
NORAD 69987·PAYLOAD·🇺🇸 United States

Lançado Jul 11, 2026 de Vandenberg Space Force Base

Loading…

Próximas Passagens (próximas 24 horas)

TLE

AtualizadoSource: CelesTrak SupGP

Época: Sep 15, 2026, 04:04 UTC

1 69987C 26159N   26258.16993056 -.02682600  00000+0 -45396-1 0  2585
2 69987  97.2849  99.8940 0002228  94.9052 105.1379 15.52968367    11

Acompanhe STARLINK-38099 em tempo real com AllMySat

Download on the App Store